Aurora, CO

1:39 PM MDT on July 24, 2017 (GMT -0600)
Buckley Air Force Base

Weather History for KBKF - November, 2012

Change the Weather History Date:

Thursday, November 22, 2012

  Actual Average Record
Temperature  
Mean Temperature 41 °F -  
Max Temperature 50 °F 47 °F 73 °F (1998)
Min Temperature 26 °F 24 °F 3 °F (2003)
Degree Days  
Heating Degree Days 24    
Moisture  
Dew Point 17 °F    
Average Humidity 38    
Maximum Humidity 59    
Minimum Humidity 21    
Precipitation  
Precipitation 0.00 in - - ()
Sea Level Pressure  
Sea Level Pressure 30.11 in    
Wind  
Wind Speed 9 mph (SE)    
Max Wind Speed 16 mph    
Max Gust Speed -    
Averages and records for this station are not official NWS values.
T = Trace of Precipitation, MM = Missing Value Source: NWS Daily Summary

Daily Weather History Graph

Daily Weather History Graph

Search for Another Location

Airport or City:

Trip Planner

Search our weather history database for the weather conditions in past years. The results will help you decide how hot, cold, wet, or windy it might be!

Date:

Astronomy

Nov. 22, 2012 Rise Set
Actual Time 6:51 AM MST 4:38 PM MST
Civil Twilight 6:22 AM MST 5:07 PM MST
Nautical Twilight 5:49 AM MST 5:40 PM MST
Astronomical Twilight 5:17 AM MST 6:12 PM MST
Moon 1:24 PM MST (11/22) 1:15 AM MST (11/22)
Length of Visible Light 10h 45m
Length of Day
9h 46m
Waxing Gibbous, 72% of the Moon is Illuminated
Nov 22
Waxing Gibbous
Nov 28
Full
Dec 6
Last Quarter
Dec 13
New
Dec 19
First Quarter

Hourly Weather History & Observations

Time (MST) Temp. Windchill Dew Point Humidity Pressure Visibility Wind Dir Wind Speed Gust Speed Precip Events Conditions
12:55 AM 44.6 °F 39.2 °F 6.8 °F 21% 29.79 in 25.0 mi South 10.4 mph - N/A   Mostly Cloudy
1:55 AM 44.6 °F 40.7 °F 6.8 °F 21% 29.80 in 25.0 mi South 6.9 mph - N/A   Mostly Cloudy
2:55 AM 44.6 °F 42.2 °F 12.2 °F 27% 29.81 in 25.0 mi SSW 4.6 mph - N/A   Mostly Cloudy
3:55 AM 42.8 °F 37.5 °F 10.4 °F 27% 29.83 in 25.0 mi South 9.2 mph - N/A   Mostly Cloudy
4:55 AM 39.2 °F 35.0 °F 10.4 °F 31% 29.87 in 25.0 mi South 5.8 mph - N/A   Mostly Cloudy
5:55 AM 42.8 °F 36.2 °F 10.4 °F 27% 29.87 in 25.0 mi SSW 12.7 mph - N/A   Mostly Cloudy
6:55 AM 44.6 °F 43.1 °F 12.2 °F 27% 29.95 in 70.0 mi SW 3.5 mph - N/A   Mostly Cloudy
7:55 AM 48.2 °F - 17.6 °F 30% 29.99 in 70.0 mi East 4.6 mph - N/A   Mostly Cloudy
8:55 AM 48.2 °F - 21.2 °F 34% 30.03 in 70.0 mi East 10.4 mph - N/A   Mostly Cloudy
9:55 AM 48.2 °F - 24.8 °F 40% 30.04 in 70.0 mi East 12.7 mph - N/A   Mostly Cloudy
10:55 AM 46.4 °F 40.4 °F 28.4 °F 50% 30.09 in 70.0 mi ENE 13.8 mph - N/A   Mostly Cloudy
11:55 AM 48.2 °F - 28.4 °F 46% 30.08 in 70.0 mi East 11.5 mph - N/A   Mostly Cloudy
12:55 PM 50.0 °F - 26.6 °F 40% 30.09 in 70.0 mi East 13.8 mph - N/A   Mostly Cloudy
1:55 PM 50.0 °F - 28.4 °F 43% 30.10 in 70.0 mi East 11.5 mph - N/A   Mostly Cloudy
2:55 PM 48.2 °F - 26.6 °F 43% 30.14 in 70.0 mi East 16.1 mph - N/A   Mostly Cloudy
3:55 PM 44.6 °F 38.1 °F 23.0 °F 43% 30.20 in 70.0 mi ENE 13.8 mph - N/A   Mostly Cloudy
4:55 PM 39.2 °F 34.2 °F 17.6 °F 42% 30.27 in 25.0 mi ESE 6.9 mph - N/A   Mostly Cloudy
5:55 PM 35.6 °F 27.1 °F 15.8 °F 44% 30.30 in 25.0 mi ESE 12.7 mph - N/A   Mostly Cloudy
6:55 PM 35.6 °F 29.2 °F 14.0 °F 41% 30.32 in 25.0 mi East 8.1 mph - N/A   Mostly Cloudy
7:55 PM 32.0 °F 24.8 °F 12.2 °F 44% 30.36 in 25.0 mi SSE 8.1 mph - N/A   Mostly Cloudy
8:55 PM 32.0 °F 27.5 °F 12.2 °F 44% 30.41 in 25.0 mi SSW 4.6 mph - N/A   Scattered Clouds
9:55 PM 32.0 °F - 12.2 °F 44% 30.43 in 25.0 mi South 2.3 mph - N/A   Scattered Clouds
10:55 PM 32.0 °F 27.5 °F 12.2 °F 44% 30.45 in 25.0 mi SE 4.6 mph - N/A   Partly Cloudy
11:55 PM 26.6 °F 18.2 °F 14.0 °F 59% 30.48 in 25.0 mi SE 8.1 mph - N/A   Partly Cloudy